White Center, Washington, United States
Lat: 47.52N, Lon: 122.35W
Wx Zone: WAZ508
Local Info
Past Weather Observations for Today

NOTE: This archive is for the closest National Weather Service station to White Center. Information may differ from the station used for current weather conditions.

Click here for Long-term Archive

Time Weather Temperature Dewpoint Humidity Pressure Winds Precip Visibility
15:53
Overcast
Light Rain
52°F / 11°C 46°F / 8°C 82% 29.47 in
(998 mb)
SSE 8.1 mph
(SSE 13 kph)
0.02 in
(0.51 mm)
10SM
15:38
Overcast
Light Rain
52°F / 11°C 46°F / 8°C 82% 29.47 in
(998 mb)
SE 8.1 mph
(SE 13 kph)
0.02 in
(0.51 mm)
4SM
15:25
Overcast
Light Rain
52°F / 11°C 46°F / 8°C 82% 29.47 in
(998 mb)
SE 9.2 mph
(SE 15 kph)
0.01 in
(0.25 mm)
2 1/2SM
14:53
Overcast
Light Rain
52°F / 11°C 46°F / 8°C 82% 29.5 in
(999 mb)
SE 9.2 mph
(SE 15 kph)
0.03 in
(0.76 mm)
5SM
13:53
Overcast
Light Rain
50°F / 10°C 45°F / 7°C 82% 29.53 in
(1000 mb)
SSE 5.8 mph
(SSE 9 kph)
0.03 in
(0.76 mm)
10SM
12:53
Overcast
Light Rain
48°F / 9°C 45°F / 7°C 87% 29.56 in
(1001 mb)
SSE 4.6 mph
(SSE 7 kph)
0.06 in
(1.52 mm)
8SM
12:00
Overcast
Light Rain
48°F / 9°C 45°F / 7°C 87% 29.59 in
(1002 mb)
SE 5.8 mph
(SE 9 kph)
0.01 in
(0.25 mm)
5SM
11:53
Overcast
Light Rain
48°F / 9°C 45°F / 7°C 87% 29.59 in
(1002 mb)
SE 6.9 mph
(SE 11 kph)
0.04 in
(1.02 mm)
2SM
11:41
Overcast
Light Rain
48°F / 9°C 45°F / 7°C 87% 29.59 in
(1002 mb)
SE 9.2 mph
(SE 15 kph)
0.03 in
(0.76 mm)
2SM
11:26
Overcast
Light Rain
48°F / 9°C 45°F / 7°C 87% 29.62 in
(1003 mb)
SE 5.8 mph
(SE 9 kph)
0.02 in
(0.51 mm)
4SM
10:53
Overcast
Light Rain
48°F / 9°C 45°F / 7°C 87% 29.62 in
(1003 mb)
SE 6.9 mph
(SE 11 kph)
0.02 in
(0.51 mm)
2SM
09:53
Overcast
Light Rain
48°F / 9°C 45°F / 7°C 87% 29.65 in
(1004 mb)
SSE 3.5 mph
(SSE 6 kph)
0.03 in
(0.76 mm)
2SM
08:57
Overcast
Light Rain
N/A 43°F / 6°C 87% 29.65 in
(1004 mb)
Calm 0.01 in
(0.25 mm)
2SM
08:53
Overcast
Light Rain
46°F / 8°C 43°F / 6°C 87% 29.62 in
(1003 mb)
Calm 0.02 in
(0.51 mm)
1 3/4SM
08:34
Overcast
Light Rain
46°F / 8°C 43°F / 6°C 87% 29.65 in
(1004 mb)
Calm 0.01 in
(0.25 mm)
2 1/2SM
08:32
Overcast
Light Rain
46°F / 8°C 43°F / 6°C 87% 29.65 in
(1004 mb)
Calm 0.01 in
(0.25 mm)
3SM
07:53
Overcast
Light Rain
46°F / 8°C 43°F / 6°C 87% 29.65 in
(1004 mb)
Calm 0.04 in
(1.02 mm)
6SM
06:53
Overcast
Light Rain
46°F / 8°C 43°F / 6°C 87% 29.65 in
(1004 mb)
Calm 0.10 in
(2.54 mm)
6SM
05:53
Overcast
Light Rain
46°F / 8°C 43°F / 6°C 87% 29.68 in
(1005 mb)
SE 3.5 mph
(SE 6 kph)
0.03 in
(0.76 mm)
10SM
04:53
Overcast
Light Rain
46°F / 8°C 41°F / 5°C 82% 29.71 in
(1006 mb)
S 9.2 mph
(S 15 kph)
0.02 in
(0.51 mm)
10SM
03:53
Overcast
Light Rain
46°F / 8°C 41°F / 5°C 82% 29.74 in
(1007 mb)
SSE 5.8 mph
(SSE 9 kph)
0.02 in
(0.51 mm)
10SM
02:53
Overcast
Light Rain
46°F / 8°C 41°F / 5°C 82% 29.77 in
(1008 mb)
SSE 4.6 mph
(SSE 7 kph)
0.04 in
(1.02 mm)
10SM
01:53
Overcast
Light Rain
46°F / 8°C 41°F / 5°C 82% 29.8 in
(1009 mb)
SSE 5.8 mph
(SSE 9 kph)
0.06 in
(1.52 mm)
7SM
00:53
Overcast
Light Rain
46°F / 8°C 41°F / 5°C 82% 29.86 in
(1011 mb)
S 5.8 mph
(S 9 kph)
0.07 in
(1.78 mm)
7SM
Time Weather Temperature Dewpoint Humidity Pressure Winds Precip Visibility


Weather for websites

WeatherForYou.com, LLC is not responsible for any damages or problems caused by this service. Current weather conditions are obtained from the closest station including government and personal stations which may have varying degrees of accuracy. Weather forecasts are derived from the NOAA NDFD. Like all things, this site belongs to Jesus Christ... He just trusts me to maintain it. If you have any questions or comments email webmaster@weatherforyou.com

Copyright © 2014, WeatherForYou.com LLC. All rights reserved.